Terminal Aerodrome Forecast
Issued by NWS

Home | Current Version | Previous Version | Text Only | Print | Product List | Glossary On
Versions: 1 2 3 4 5 6 7 8 9 10 11 12 13 14 15 16 17 18
000
FTUS43 KJKL 241700
TAFSME
TAF
KSME 241735Z 2418/2518 VRB03KT P6SM FEW110 SCT250
     FM251400 23006KT P6SM SCT035 SCT070=

USA.gov is the U.S. government's official web portal to all federal, state and local government web resources and services.